Regional Weather Roundup
Issued by NWS Charleston, SC

Current Version | Previous Version | Graphics & Text | Print | Product List | Glossary On
Versions: 1 2 3 4 5 6 7 8 9 10 11 12 13 14 15 16 17 18 19 20 21 22 23 24 25 26 27 28 29 30 31 32 33 34 35 36 37 38 39 40 41 42 43 44 45 46 47 48 49 50
029
ASUS42 KCHS 192112
RWRCHS

REGIONAL WEATHER ROUNDUP
NATIONAL WEATHER SERVICE CHARLESTON SC
400 PM EST SUN FEB 19 2017

NOTE: "FAIR" INDICATES FEW OR NO CLOUDS BELOW 12,000 FEET WITH NO
SIGNIFICANT WEATHER AND/OR OBSTRUCTIONS TO VISIBILITY.

NOT ALL STATIONS ARE QUALITY CONTROLLED. USE DATA WITH CAUTION...
ESPECIALLY DEWPOINT OBSERVATIONS.

SCZ027-030-031-034>040-042>050-192200-
...SOUTHEAST SOUTH CAROLINA...

CITY           SKY/WX    TMP DP  RH WIND       PRES   REMARKS
N CHARLESTON   MOSUNNY   75  46  35 N9G21     29.99R
WATERFRONT PRK   N/A     74  49  41 NW6G13    29.96S
MOUNT PLEASANT FAIR      73  50  43 NW9       29.99S
JOHNS ISLAND   FAIR      77  48  36 W13       29.98S
PINOPOLIS        N/A     64  54  68 N6        29.91S
MONCKS CORNER  FAIR      72  45  37 N8        29.99F
SUMMERVILLE    FAIR      73  46  38 NW5       30.00S
BEAUFORT MCAS  SUNNY     76  49  38 NW10      30.00S
BEAUFORT ARPT  FAIR      73  50  43 NW10      30.00R
HILTON HEAD IS MOSUNNY   77  50  38 N13       30.00F
WALTERBORO     CLEAR     72  46  40 NW12      30.01R
ALLENDALE      FAIR      73  46  38 N8G15     29.99S

...SOUTHERN MIDLANDS AND PEE DEE...

CITY           SKY/WX    TMP DP  RH WIND       PRES   REMARKS
GEORGETOWN     FAIR      72  46  40 NW10G18   29.99R
KINGSTREE      FAIR      70  45  40 W10       29.99F
ORANGEBURG     MOSUNNY   72  47  40 NW7G17    30.00F
BARNWELL       FAIR      75  50  41 NW9       30.01R
AIKEN          MOCLDY    70  48  46 N7        30.05R
MANNING        FAIR      72  46  40 MISG      30.00S
COLUMBIA       MOSUNNY   73  48  41 NW8       30.00F
SUMTER         SUNNY     72  46  39 W6        29.98F
FLORENCE       SUNNY     72  47  40 N13       29.99S
MYRTLE BEACH   SUNNY     72  46  40 NW13      29.98R
N MYRTLE BEACH SUNNY     72  47  40 NW7G17    29.95S

$$

GAZ063-065-086>088-099>101-113>116-118-119-134>141-150-192200-
...SOUTHEAST GEORGIA...

CITY           SKY/WX    TMP DP  RH WIND       PRES   REMARKS
SAVANNAH ARPT  MOSUNNY   74  47  38 NW9       30.00S
HUNTER AAF     MOSUNNY   77  55  46 W9        29.98S
FORT STEWART   MOSUNNY   74  51  45 NW5       29.99S
STATESBORO     PTSUNNY   75  53  46 NW6       30.01S
SYLVANIA       PTCLDY   N/A N/A N/A N8        30.02R
CLAXTON        FAIR      73  55  52 W7        30.01S

...CSRA...CENTRAL AND FAR SOUTHEAST GEORGIA...

CITY           SKY/WX    TMP DP  RH WIND       PRES   REMARKS
THOMSON        MOSUNNY   74  54  48 NW7       30.05S
AUGUSTA-BUSH   MOSUNNY   77  49  37 N9        30.00S
AUGUSTA-DANIEL SUNNY     73  47  39 N10       30.02R
SWAINSBORO     CLOUDY    73  50  43 W3        30.03S
VIDALIA        PTSUNNY   75  55  50 N8        30.02S
EASTMAN        FAIR      76  35  22 N6        30.05S
HAZLEHURST     FAIR      77  53  43 NW9       30.01S
ALMA           MOSUNNY   76  53  44 NW7       30.01F
WAYCROSS       PTSUNNY   81  57  44 NW10      30.02S
JESUP          MOCLDY    77  50  38 N7        30.01F
BAXLEY         CLOUDY    75  57  53 N7        30.01S
BRUNSWICK      CLOUDY    75  59  57 NW7       30.02F
SAINT SIMONS   MOSUNNY   70  59  68 VRB7      30.01S

$$

SCZ027-028-034-036>038-045-046-048>050-GAZ119-141-192200-
...LAKE AND SUPPLEMENTAL COASTAL OBSERVATIONS...

STATION/POSITION TIME  TEMP    WIND        PRES    WAVE   SWELL
                       AIR SEA DIR/SP/G            HT/PER HT/PER/DIR
                 (UTC) (F)     (DEG/KT/KT) (MB)    (FT/S) (FT/S/D)
WINYAH BAY       NOT AVBL
LAKE MURRAY      2020   65     120/  4/  6 1015.6
ACE BASIN NERRS  1945   75     320/  5     1015.0
FORT PULASKI     2048   71 60  300/ 10/ 11 1016.0F
SAPELO ISLAND    2000   76     300/  8     1016.0

$$

ANZ835-935-AMZ111-154-330-350-352-354-370-450-454-472-192200-
...C-MAN AND BUOY OBSERVATIONS...

STATION/POSITION TIME  TEMP    WIND        PRES    WAVE   SWELL
                       AIR SEA DIR/SP/G            HT/PER HT/PER/DIR
                 (UTC) (F)     (DEG/KT/KT) (MB)    (FT/S) (FT/S/D)
BUOY 41004       2050   66 69  260/ 12/ 14 1015.0R   2/ 7   2/140/ 7
BUOY 41008       1950   63 63  170/  6/  6 1016.2    1/ 5
FOLLY BEACH CMAN 2000   74     330/  7/ 11 1015.9F
CAPERS NEARSHORE 2008   64 60  250/  4/  8 1015.2R
FRIPP NEARSHORE  2008   67 61  290/  6/  8 1015.5S


STATION/POSITION TIME  TEMP    WIND        PRES    WAVE   SWELL
                       AIR SEA DIR/SP/G            HT/PER HT/PER/DIR
                 (UTC) (F)     (DEG/KT/KT) (MB)    (FT/S) (FT/S/D)
5E ST. MARYS GA  2030      65                N/A     1
FRYING PAN BUOY  2050   62 64  250/ 14/ 16 1014.1R   3/ 6   2/170/ 6
BUOY 41025       2050   61 67  330/ 10/ 12 1013.1R   2/ 7   2/160/ 7
CAPE LOOKOUT NC  2000   64     260/  9/ 12 1012.7R
BUOY 41002       2050   67 71  270/ 10/ 12 1012.1R   4/ 6   3/240/ 6
BUOY 41010       NOT AVBL
ST AUGUSTINE FL  2100   66 67   70/  9/ 10 1018.0F


$$




USA.gov is the U.S. government's official web portal to all federal, state and local government web resources and services.